CW2856 Weather Reports


Display with metric or nautical units.
time (UTC)temp
F
wind
direction
speed
MPH
gust
MPH
rain 1hr
in
rain 24hr
in
rain mn
in
humidity
%
barometer
mb
20260505124853 53 34 13.0 29.0 0.00 0.00 0.00 78 1006.3
20260505123313 53 47 18.0 26.0 0.00 0.00 0.00 80 1005.6
20260505121818 54 61 16.0 28.0 0.00 0.00 0.00 81 1005.2
20260505120322 54 43 18.0 24.0 0.00 0.00 0.00 85 1005.1
20260505114826 54 36 14.0 20.0 0.00 0.00 0.00 86 1004.6
20260505113327 54 39 12.0 20.0 0.00 0.00 0.00 86 1004.6
20260505111828 54 28 10.0 18.0 0.00 0.00 0.00 85 1004.7
20260505110315 55 22 14.0 19.0 0.00 0.00 0.00 84 1004.2
20260505101821 57 82 13.0 19.0 0.00 0.00 0.00 82 1004.3
20260505100324 58 15 12.0 17.0 0.00 0.00 0.00 82 1004.1
20260505094830 60 71 10.0 16.0 0.00 0.00 0.00 81 1003.9
20260505093331 60 58 11.0 18.0 0.00 0.00 0.00 80 1003.7
20260505091852 63 40 13.0 17.0 0.00 0.00 0.00 77 1003.1
20260505090320 64 44 8.0 14.0 0.00 0.00 0.00 81 1003.8
20260505084820 65 343 4.0 9.0 0.00 0.00 0.00 82 1003.7
20260505083325 64 345 4.0 11.0 0.00 0.00 0.00 83 1003.2
20260505081846 63 319 5.0 8.0 0.00 0.00 0.00 83 1002.7
20260505080328 64 325 3.0 8.0 0.00 0.00 0.00 82 1002.0
20260505074833 65 208 2.0 7.0 0.00 0.00 0.00 81 1001.2
20260505073313 65 212 2.0 7.0 0.00 0.00 0.00 78 1001.2
20260505071853 66 233 3.0 8.0 0.00 0.00 0.00 78 1001.1
20260505070320 66 333 3.0 5.0 0.00 0.00 0.00 78 1000.9
20260505064820 66 84 1.0 7.0 0.00 0.00 0.00 81 999.8
20260505063325 67 261 9.0 18.0 0.00 0.00 0.00 80 1001.7
20260505061826 69 175 11.0 19.0 0.00 0.00 0.00 73 1002.2
20260505060350 70 229 8.0 16.0 0.00 0.00 0.00 71 1002.1
20260505054853 70 173 4.0 9.0 0.00 0.00 0.00 71 1001.9
20260505053313 70 174 5.0 9.0 0.00 0.00 0.00 71 1002.1
20260505051814 70 186 5.0 8.0 0.00 0.00 0.00 70 1002.1
20260505050322 70 177 5.0 9.0 0.00 0.00 0.00 70 1002.4
20260505040313 70 196 8.0 16.0 0.00 0.00 0.00 70 1001.5
20260505034818 70 159 6.0 10.0 0.00 0.00 0.00 70 1002.1
20260505033319 70 172 7.0 11.0 0.00 0.00 0.00 70 1002.2
20260505031823 70 159 6.0 11.0 0.00 0.00 0.00 70 1002.2
20260505030327 70 163 8.0 11.0 0.00 0.00 0.00 70 1002.1
20260505024847 71 172 6.0 11.0 0.00 0.00 0.00 69 1002.2
20260505023330 71 178 3.0 7.0 0.00 0.00 0.00 69 1002.4
20260505021850 72 196 4.0 9.0 0.00 0.00 0.00 67 1002.0
20260505020329 73 176 3.0 8.0 0.00 0.00 0.00 65 1002.1
20260505014813 73 212 5.0 11.0 0.00 0.00 0.00 63 1001.9
20260505013313 74 196 7.0 12.0 0.00 0.00 0.00 63 1001.7
20260505011818 74 206 7.0 12.0 0.00 0.00 0.00 63 1001.6
20260505010318 74 171 6.0 11.0 0.00 0.00 0.00 62 1001.4
20260505004819 75 192 7.0 17.0 0.00 0.00 0.00 62 1001.6
20260505003326 75 196 6.0 14.0 0.00 0.00 0.00 62 1001.5
20260505001827 76 209 8.0 15.0 0.00 0.00 0.00 63 1001.4
20260505000351 76 189 7.0 15.0 0.00 0.00 0.00 63 1001.4
20260504234832 77 209 8.0 17.0 0.00 0.00 0.00 62 1001.0
20260504233315 77 225 9.0 18.0 0.00 0.00 0.00 61 1001.1
20260504231820 77 189 8.0 18.0 0.00 0.00 0.00 61 1001.2
20260504230321 78 209 11.0 20.0 0.00 0.00 0.00 60 1001.2
20260504224823 78 178 10.0 17.0 0.00 0.00 0.00 61 1001.1
20260504223329 79 225 9.0 19.0 0.00 0.00 0.00 59 1001.0
20260504221849 80 228 11.0 19.0 0.00 0.00 0.00 58 1000.9
20260504220316 79 200 10.0 20.0 0.00 0.00 0.00 60 1001.1
20260504214839 80 227 9.0 20.0 0.00 0.00 0.00 58 1001.1
20260504213321 80 185 12.0 23.0 0.00 0.00 0.00 56 1001.2
20260504211826 80 225 11.0 18.0 0.00 0.00 0.00 57 1001.1
20260504210328 81 227 11.0 20.0 0.00 0.00 0.00 55 1001.4
20260504204829 81 198 13.0 24.0 0.00 0.00 0.00 56 1001.5
20260504203315 80 222 9.0 16.0 0.00 0.00 0.00 58 1001.8
20260504201817 81 202 8.0 24.0 0.00 0.00 0.00 56 1001.9
20260504200325 80 213 13.0 25.0 0.00 0.00 0.00 55 1002.0
20260504194826 81 202 13.0 24.0 0.00 0.00 0.00 54 1001.9
20260504193326 80 228 15.0 29.0 0.00 0.00 0.00 52 1002.1
20260504191832 80 223 10.0 21.0 0.00 0.00 0.00 56 1002.2
20260504190314 79 221 15.0 22.0 0.00 0.00 0.00 55 1002.4
20260504184818 79 222 14.0 18.0 0.00 0.00 0.00 56 1002.5
20260504183319 79 207 327.0 20.0 0.00 0.00 0.00 56 1002.7
20260504181820 0 0.0 0.0 0.00 0.00 0.00 1002.8
20260504180327 0 0.0 0.0 0.00 0.00 0.00 1003.0
20260504174828 0 0.0 0.0 0.00 0.00 0.00 1003.1
20260504173314 0 0.0 0.0 0.00 0.00 0.00 1003.2
20260504171814 0 0.0 0.0 0.00 0.00 0.00 1003.3
20260504170338 0 0.0 0.0 0.00 0.00 0.00 1003.2
20260504160318 0 0.0 0.0 0.00 0.00 0.00 1003.2
20260504150322 71 196 15.0 28.0 0.00 0.00 0.00 60 1003.5
20260504140316 69 236 10.0 22.0 0.00 0.00 0.00 62 1004.1
20260504130328 66 204 10.0 22.0 0.00 0.00 0.00 63 1004.5